Vorticity
35 -1 8 25 3 3 5 4 4 4 5 3 4 2 0 3 4 7 10 8 5 3 -0 1 4 4 5 5 5 3 4 5 6 7 5 5 6 5 5 4 3 4 3
0 10 17 7 2 2 5 5 6 5 2 3 4 1 2 5 6 7 6 6 6 5 5 7 6 7 7 6 4 6 9 7 6 2 3 4 7 6 6 4 4 4 5
14 -4 -1 8 3 2 7 1 3 2 1 3 2 1 2 6 9 13 10 11 7 6 6 7 8 6 9 7 4 7 6 5 5 3 2 2 4 3 3 4 5 7 6
-8 -8 -22 41 28 2 -1 1 3 3 3 2 -1 2 6 9 5 4 5 4 7 5 5 5 8 9 10 6 4 6 5 4 5 4 5 5 3 6 5 5 4 8 6
26 2 -22 42 26 1 5 7 11 8 3 2 4 5 3 1 5 5 0 -2 2 8 7 5 6 8 8 7 7 9 3 5 6 5 2 6 10 7 7 10 10 8 8
10 15 5 7 -6 3 -0 3 -19 -14 -3 -2 1 4 4 10 7 3 3 3 6 6 6 8 9 3 9 0 9 5 5 6 3 6 8 11 9 9 7 9 7 4 3
26 -4 10 20 -5 5 2 4 3 4 3 6 8 10 10 11 8 4 1 4 8 8 6 5 10 2 4 3 7 5 7 7 7 5 6 12 8 7 8 4 3 2 4
20 6 21 21 16 -1 4 1 -4 9 10 3 -5 2 9 2 1 2 6 6 18 15 10 7 -3 3 1 7 11 8 10 5 7 6 7 7 9 5 5 3 4 5 6
12 26 3 -18 25 34 -6 11 6 -24 23 -50 9 3 2 5 4 4 5 2 8 7 1 8 8 15 0 13 1 9 5 7 5 7 6 4 4 2 3 5 3 2 2
10 -2 8 20 -60 35 59 -6 3 -6 24 -15 4 3 4 1 4 10 12 6 1 6 -1 3 1 7 10 30 3 3 4 4 4 3 7 6 3 3 4 3 2 3 3
8 6 11 24 9 18 20 -28 8 61 9 -2 1 0 -1 3 24 -12 20 21 15 11 6 -1 4 6 20 22 4 10 4 3 8 7 11 4 4 3 3 2 4 3 3
10 13 12 7 8 3 23 -26 45 15 44 3 -6 7 -8 -2 -10 -10 -27 -11 -5 16 11 20 8 12 20 9 3 5 4 10 7 9 1 3 3 4 3 2 3 5 6
10 6 -4 6 8 10 6 13 23 26 -4 37 15 24 28 18 -10 -15 15 -14 25 20 32 12 17 11 8 4 1 4 8 9 10 2 4 3 4 3 0 3 5 3 7
5 10 8 19 5 17 15 2 5 -4 2 12 -13 5 11 19 36 1 42 15 11 22 23 17 5 0 5 3 4 9 12 4 2 4 3 5 2 1 5 7 4 5 4
9 7 7 7 13 16 4 4 -4 -1 4 -1 -5 -6 10 7 1 15 8 14 16 5 32 2 3 4 6 7 12 11 2 1 4 3 5 0 1 4 4 3 4 3 2
16 15 13 9 19 11 1 -3 -0 7 16 2 7 10 2 8 -10 11 8 22 4 44 0 1 3 5 6 13 8 3 4 -1 5 8 4 4 6 3 4 3 4 2 1
19 17 5 11 13 12 6 7 17 4 21 24 4 6 5 10 16 14 15 -3 38 -2 1 2 5 4 11 4 1 3 4 6 3 3 4 5 5 5 4 3 -2 0 3
11 23 19 11 13 14 7 14 7 22 7 2 -1 6 15 10 16 9 29 18 1 -3 3 5 4 10 4 2 1 4 4 4 3 0 4 4 3 1 4 5 2 0 3
18 23 22 16 15 4 9 -1 10 -1 1 -2 20 23 22 22 24 35 11 0 2 2 2 5 11 4 1 1 3 4 5 10 6 9 1 -1 2 4 5 6 5 5 9
13 12 25 44 23 8 7 14 15 33 50 44 41 39 13 13 7 4 3 1 2 6 9 7 4 0 2 0 -4 1 -2 0 1 5 1 -4 3 2 -2 -3 -2 -2 4
-0 6 10 6 13 18 24 23 6 10 6 4 3 6 5 2 6 7 8 -1 5 7 9 5 2 1 -0 1 5 1 5 7 14 6 -2 -1 3 2 1 2 1 5 2
4 5 5 5 6 8 7 9 8 6 3 3 4 5 5 5 3 4 18 22 12 3 0 3 2 -1 -1 0 2 3 10 6 2 12 8 -4 -8 -5 -5 3 2 -2 2
5 5 5 6 4 4 4 5 8 9 9 7 6 6 8 5 7 -3 2 15 10 3 -1 1 -2 12 19 1 4 5 9 8 2 3 7 0 10 -4 5 7 -8 0 -3
6 7 4 4 4 5 6 5 5 3 7 8 7 6 7 8 6 8 9 8 3 2 5 14 0 5 5 -3 38 -14 5 -11 -7 -9 -6 6 -3 -2 5 -4 -6 4 4
3 3 3 4 4 6 5 4 4 3 6 5 6 5 6 9 6 4 1 2 -0 1 0 7 -2 14 4 9 2 16 -1 10 35 -24 7 1 8 5 -1 6 -4 7 10
6 4 3 5 6 5 4 4 3 5 8 7 5 12 8 -1 18 6 7 7 8 6 7 5 6 11 6 27 -3 35 -2 17 11 6 7 2 -1 -4 8 9 10 6 10
Height
5818 5810 5814 5821 5827 5833 5837 5839 5840 5842 5842 5843 5845 5846 5847 5847 5848 5848 5849 5849 5850 5850 5850 5850 5850 5850 5849 5848 5849 5849 5849 5848 5847 5848 5847 5847 5846 5845 5844 5845 5844 5845 5844
5814 5813 5815 5812 5819 5825 5831 5834 5836 5838 5840 5840 5840 5842 5843 5843 5844 5845 5845 5846 5846 5847 5847 5847 5847 5846 5846 5846 5847 5847 5847 5846 5846 5847 5845 5845 5844 5844 5844 5843 5843 5843 5843
5811 5812 5816 5796 5807 5816 5823 5827 5830 5832 5834 5835 5836 5838 5839 5839 5840 5840 5841 5843 5843 5844 5843 5843 5843 5843 5843 5843 5846 5845 5845 5845 5844 5844 5844 5844 5843 5843 5842 5841 5842 5841 5842
5806 5807 5815 5799 5793 5805 5812 5818 5822 5824 5826 5828 5830 5832 5835 5836 5837 5838 5838 5838 5839 5840 5840 5840 5840 5840 5841 5841 5842 5843 5843 5843 5842 5841 5842 5842 5842 5841 5840 5840 5840 5839 5839
5799 5805 5805 5794 5793 5804 5809 5814 5817 5820 5823 5824 5825 5827 5830 5832 5833 5834 5833 5835 5835 5836 5836 5837 5837 5838 5838 5838 5840 5840 5839 5841 5840 5840 5840 5839 5839 5839 5838 5838 5838 5838 5837
5796 5797 5797 5790 5798 5798 5803 5809 5813 5814 5817 5820 5822 5824 5826 5828 5829 5829 5829 5830 5831 5831 5832 5833 5834 5834 5834 5835 5837 5836 5835 5838 5838 5839 5838 5838 5837 5837 5837 5836 5837 5836 5836
5790 5792 5793 5793 5795 5798 5800 5802 5807 5808 5809 5812 5815 5818 5821 5822 5823 5825 5825 5826 5826 5826 5828 5828 5830 5830 5830 5831 5832 5833 5833 5833 5834 5835 5835 5836 5835 5835 5834 5834 5833 5833 5833
5780 5785 5784 5785 5783 5790 5790 5792 5795 5798 5801 5804 5810 5813 5816 5817 5818 5820 5821 5821 5822 5822 5823 5825 5825 5825 5826 5827 5828 5831 5829 5830 5831 5832 5832 5832 5832 5831 5831 5830 5830 5829 5829
5776 5777 5778 5775 5765 5772 5781 5780 5784 5785 5793 5797 5803 5806 5809 5810 5813 5815 5815 5817 5817 5817 5819 5820 5821 5822 5822 5823 5824 5828 5826 5826 5828 5829 5828 5828 5828 5827 5828 5827 5826 5826 5826
5775 5771 5770 5762 5758 5769 5750 5771 5768 5775 5785 5790 5796 5801 5802 5804 5808 5811 5811 5813 5813 5813 5814 5815 5816 5817 5818 5819 5820 5823 5824 5824 5824 5825 5826 5824 5825 5825 5825 5825 5824 5823 5823
5771 5770 5767 5763 5761 5757 5766 5763 5768 5772 5783 5784 5791 5795 5798 5800 5803 5805 5806 5808 5808 5808 5808 5809 5811 5812 5813 5814 5817 5820 5820 5821 5823 5823 5823 5822 5823 5822 5822 5822 5822 5820 5818
5766 5767 5770 5767 5765 5762 5764 5769 5771 5773 5777 5782 5788 5789 5794 5794 5796 5797 5798 5799 5801 5801 5802 5804 5806 5808 5809 5811 5814 5817 5818 5818 5818 5819 5820 5819 5819 5819 5818 5818 5817 5815 5813
5764 5764 5763 5765 5768 5768 5768 5772 5775 5776 5778 5781 5785 5786 5789 5789 5790 5792 5794 5795 5794 5795 5796 5799 5801 5804 5806 5808 5811 5814 5814 5813 5815 5816 5816 5816 5816 5815 5813 5811 5811 5809 5806
5757 5761 5759 5759 5762 5763 5766 5769 5770 5774 5776 5777 5779 5782 5783 5785 5788 5789 5789 5791 5789 5791 5793 5795 5799 5802 5804 5807 5808 5810 5812 5811 5811 5811 5812 5812 5811 5809 5808 5806 5804 5802 5799
5752 5753 5753 5755 5758 5757 5760 5763 5765 5768 5770 5771 5774 5776 5780 5781 5782 5785 5786 5785 5786 5788 5791 5793 5797 5799 5802 5804 5805 5807 5808 5807 5807 5808 5808 5808 5806 5805 5802 5800 5798 5795 5793
5750 5746 5745 5749 5751 5754 5755 5757 5759 5763 5765 5767 5771 5772 5775 5776 5779 5779 5780 5781 5785 5785 5789 5792 5795 5797 5799 5802 5804 5803 5804 5804 5804 5804 5803 5802 5800 5798 5796 5793 5791 5789 5786
5744 5741 5741 5745 5748 5749 5753 5753 5755 5759 5761 5763 5764 5769 5771 5772 5772 5774 5777 5781 5782 5785 5787 5789 5793 5794 5796 5797 5800 5800 5798 5799 5800 5798 5797 5796 5794 5792 5790 5787 5784 5782 5779
5738 5737 5739 5741 5744 5745 5748 5750 5752 5753 5755 5759 5761 5763 5765 5766 5767 5770 5775 5778 5781 5783 5786 5787 5789 5790 5793 5794 5794 5795 5794 5793 5791 5791 5791 5789 5788 5786 5784 5780 5777 5774 5771
5740 5738 5736 5737 5740 5744 5743 5746 5749 5749 5750 5753 5755 5757 5759 5760 5765 5770 5774 5776 5779 5781 5783 5785 5786 5788 5789 5790 5789 5790 5789 5788 5787 5785 5783 5783 5782 5780 5776 5773 5770 5766 5762
5742 5740 5739 5737 5738 5740 5742 5744 5744 5744 5746 5749 5752 5754 5758 5763 5767 5771 5773 5774 5777 5778 5779 5782 5784 5785 5785 5784 5784 5785 5784 5783 5782 5779 5777 5774 5773 5771 5767 5764 5759 5756 5751
5745 5744 5744 5744 5741 5743 5744 5744 5745 5747 5748 5749 5751 5756 5759 5762 5766 5769 5770 5772 5773 5775 5776 5778 5780 5780 5780 5780 5780 5778 5778 5776 5774 5772 5771 5767 5764 5761 5758 5754 5750 5745 5740
5744 5744 5744 5744 5745 5746 5745 5744 5747 5749 5749 5752 5751 5755 5759 5762 5765 5765 5767 5769 5772 5772 5773 5774 5776 5776 5774 5773 5773 5770 5768 5767 5764 5763 5761 5760 5756 5752 5748 5744 5739 5735 5729
5742 5743 5743 5744 5745 5744 5742 5744 5746 5747 5747 5750 5753 5755 5758 5759 5762 5763 5764 5766 5767 5766 5769 5769 5770 5769 5768 5766 5763 5761 5758 5756 5753 5752 5750 5747 5744 5741 5736 5731 5725 5720 5715
5741 5741 5741 5741 5740 5741 5743 5744 5746 5748 5749 5752 5754 5755 5755 5755 5758 5761 5761 5760 5761 5761 5763 5763 5762 5761 5760 5758 5754 5752 5749 5746 5744 5742 5740 5735 5731 5726 5722 5718 5714 5707 5701
5740 5740 5740 5740 5741 5742 5743 5743 5746 5748 5749 5751 5752 5750 5751 5755 5756 5756 5755 5755 5756 5757 5758 5758 5756 5754 5751 5750 5747 5744 5741 5739 5734 5732 5728 5724 5719 5714 5710 5704 5696 5690 5685
5739 5739 5740 5740 5740 5740 5740 5743 5744 5744 5745 5746 5747 5749 5749 5748 5749 5750 5750 5751 5751 5752 5751 5749 5749 5747 5745 5742 5738 5734 5732 5730 5727 5723 5718 5714 5709 5702 5693 5687 5680 5674 5667